Weather History for West Palm Beach, FL

Change the Weather History Date:

Friday, March 15, 2013

  Actual Average Record
Temperature  
Mean Temperature 60 °F 70 °F  
Max Temperature 71 °F 79 °F 90 °F (1962)
Min Temperature 49 °F 62 °F 40 °F (1970)
Degree Days  
Heating Degree Days 5 1  
Month to date heating degree days 58 15  
Since 1 July heating degree days 141 220  
Cooling Degree Days 0 6  
Month to date cooling degree days 24 88  
Year to date cooling degree days 405 323  
Growing Degree Days 10 (Base 50)    
Moisture  
Dew Point 47 °F    
Average Humidity 62    
Maximum Humidity 80    
Minimum Humidity 44    
Precipitation  
Precipitation 0.00 in 0.16 in 2.50 in (1919)
Month to date precipitation T 2.13  
Year to date precipitation 3.19 8.08  
Snow  
Snow 0.00 in - - ()
Month to date snowfall 0.0  
Since 1 July snowfall 0.0  
Snow Depth 0.00 in    
Sea Level Pressure  
Sea Level Pressure 30.20 in    
Wind  
Wind Speed 8 mph (North)    
Max Wind Speed 13 mph    
Max Gust Speed 17 mph    
Visibility 10 miles    
Events      
T = Trace of Precipitation, MM = Missing Value Source: NWS Daily Summary

Daily Weather History Graph

Daily Weather History Graph

Search for Another Location

Airport:

Trip Planner

Search our weather history database for the weather conditions in past years. The results will help you decide how hot, cold, wet, or windy it might be!

Date:

Astronomy

Mar. 15, 2013 Rise Set
Actual Time 7:29 AM EDT 7:29 PM EDT
Civil Twilight 7:06 AM EDT 7:52 PM EDT
Nautical Twilight 6:39 AM EDT 8:19 PM EDT
Astronomical Twilight 6:12 AM EDT 8:46 PM EDT
Moon 9:43 AM EDT (3/15) 11:15 PM EDT (3/15)
Length of Visible Light 12h 46m
Length of Day
11h 59m
Waxing Crescent, 15% of the Moon is Illuminated
Mar 15
Waxing Crescent
Mar 19
First Quarter
Mar 27
Full
Apr 3
Last Quarter
Apr 10
New

Hourly Weather History & Observations

Time (EDT) Temp. Dew Point Humidity Pressure Visibility Wind Dir Wind Speed Gust Speed Precip Events Conditions
12:53 AM 55.9 °F 48.9 °F 77% 30.20 in 10.0 mi NNW 10.4 mph - N/A   Partly Cloudy
1:53 AM 55.0 °F 46.9 °F 74% 30.20 in 10.0 mi NW 9.2 mph - N/A   Partly Cloudy
2:53 AM 55.9 °F 44.1 °F 64% 30.18 in 10.0 mi NNW 9.2 mph - N/A   Clear
3:53 AM 54.0 °F 44.1 °F 69% 30.18 in 10.0 mi NNW 10.4 mph - N/A   Clear
4:53 AM 53.1 °F 43.0 °F 69% 30.18 in 10.0 mi NNW 8.1 mph - N/A   Clear
5:53 AM 51.1 °F 44.1 °F 77% 30.20 in 10.0 mi NNW 8.1 mph - N/A   Partly Cloudy
6:53 AM 50.0 °F 43.0 °F 77% 30.21 in 10.0 mi NW 8.1 mph - N/A   Scattered Clouds
7:53 AM 50.0 °F 43.0 °F 77% 30.23 in 10.0 mi NW 8.1 mph - N/A   Mostly Cloudy
8:53 AM 55.0 °F 43.0 °F 64% 30.24 in 10.0 mi NNW 9.2 mph - N/A   Mostly Cloudy
9:53 AM 61.0 °F 45.0 °F 56% 30.25 in 10.0 mi NNW 10.4 mph - N/A   Mostly Cloudy
10:53 AM 66.0 °F 48.0 °F 52% 30.25 in 10.0 mi NNW 10.4 mph - N/A   Mostly Cloudy
11:53 AM 69.1 °F 48.0 °F 47% 30.24 in 10.0 mi NE 10.4 mph - N/A   Mostly Cloudy
12:53 PM 70.0 °F 48.0 °F 46% 30.24 in 10.0 mi NNE 10.4 mph - N/A   Scattered Clouds
1:53 PM 70.0 °F 46.9 °F 44% 30.21 in 10.0 mi NE 10.4 mph 16.1 mph N/A   Mostly Cloudy
2:53 PM 71.1 °F 48.0 °F 44% 30.18 in 10.0 mi NE 12.7 mph 17.3 mph N/A   Mostly Cloudy
3:53 PM 70.0 °F 48.9 °F 47% 30.17 in 10.0 mi North 5.8 mph 17.3 mph N/A   Scattered Clouds
4:53 PM 70.0 °F 50.0 °F 49% 30.16 in 10.0 mi NE 9.2 mph - N/A   Scattered Clouds
5:53 PM 69.1 °F 50.0 °F 51% 30.16 in 10.0 mi ENE 9.2 mph - N/A   Scattered Clouds
6:53 PM 68.0 °F 50.0 °F 52% 30.17 in 10.0 mi North 5.8 mph - N/A   Scattered Clouds
7:53 PM 64.9 °F 52.0 °F 63% 30.17 in 10.0 mi North 6.9 mph - N/A   Scattered Clouds
8:53 PM 63.0 °F 52.0 °F 67% 30.18 in 10.0 mi North 4.6 mph - N/A   Scattered Clouds
9:53 PM 62.1 °F 51.1 °F 67% 30.19 in 10.0 mi North 6.9 mph - N/A   Scattered Clouds
10:53 PM 57.9 °F 51.1 °F 78% 30.19 in 10.0 mi NNW 4.6 mph - N/A   Partly Cloudy
11:53 PM 57.9 °F 51.1 °F 78% 30.19 in 10.0 mi Calm Calm - N/A   Partly Cloudy